Regional Weather Roundup
Issued by NWS

Home | Current Version | Previous Version | Text Only | Print | Product List | Glossary On
Versions: 1 2 3 4 5 6 7 8 9 10 11 12 13 14 15 16 17 18 19 20 21 22 23 24 25 26 27 28 29 30 31 32 33 34 35 36 37 38 39 40 41 42 43 44 45 46 47 48 49 50
407
ASUS44 KLIX 200101
RWRLA
LOUISIANA WEATHER ROUNDUP
NATIONAL WEATHER SERVICE NEW ORLEANS LA
800 PM CDT TUE AUG 19 2014

NOTE: "FAIR" INDICATES FEW OR NO CLOUDS BELOW 12,000 FEET WITH NO
      SIGNIFICANT WEATHER AND/OR OBSTRUCTIONS TO VISIBILITY.
      SKY/WX - SKY CONDITION AND SIGNIFICANT WEATHER.
      TMP - AIR TEMPERATURE.    DP   - DEWPOINT TEMPERATURE.
      RH  - RELATIVE HUMIDITY.  PRES - PRESSURE.
      HX  - HEAT INDEX.         WCI  - WIND CHILL INDEX.

*  THESE STATIONS ARE NOT NWS OR FAA STATIONS AND ARE NOT UNDER
   NWS QUALITY CONTROL.

LAZ040-048-061>063-065-066-069-200200-
SOUTHEAST LOUISIANA

CITY           SKY/WX    TMP DP  RH WIND       PRES   REMARKS
N.O. AUDUBON     N/A     84  76  76 MISG        N/A
N.O. INTL ARPT MOCLDY    83  75  77 S7        29.94F
N.O. LAKEFRONT CLOUDY    85  73  67 SW7       29.95R
N.O. DOWNTOWN* FAIR      86  72  62 SW3       29.96R
SLIDELL        MOCLDY    82  73  74 CALM      29.93F
BATON ROUGE    CLOUDY    79  70  74 W5        29.96R
BOOTHVILLE     CLEAR     85  76  74 SW6       29.97S
BELLE CHASSE   MOCLDY    80  75  84 SW3       29.95R
BOGALUSA*      FAIR      82  74  78 CALM      29.96S
GALLIANO*      NOT AVBL
NEW ROADS*     FAIR      76  73  88 CALM      29.96R
GONZALES*      FAIR      80  76  88 CALM      29.95R
HAMMOND*       NOT AVBL
HOUMA*         MOCLDY    83  72  68 CALM      29.95S
PORT FOURCHON* CLEAR     86  75  70 SW6       29.98S HX  95

$$

LAZ041-044-053-054-200200-
SOUTHWEST LOUISIANA

CITY           SKY/WX    TMP DP  RH WIND       PRES   REMARKS
LAKE CHARLES   CLOUDY    77  74  90 CALM      29.95R
LAFAYETTE      CLOUDY    77  74  90 NW6       29.95F
PATTERSON      MOCLDY   N/A N/A N/A MISG        N/A
SALT POINT       N/A     84  77  79 CALM      29.94F
NEW IBERIA     CLOUDY    78  73  84 W3        29.95F
CHENAULT AIRPK NOT AVBL

$$

LAZ027-028-200200-
CENTRAL LOUISIANA

CITY           SKY/WX    TMP DP  RH WIND       PRES   REMARKS
FORT POLK      LGT RAIN  76  72  87 W6        29.97R
ALEXANDRIA INT CLOUDY    80  73  79 CALM      29.93S
ALEXANDRIA     CLOUDY    78  75  90 S3        29.95R

$$

LAZ001-002-200200-
NORTHWEST LOUISIANA

CITY           SKY/WX    TMP DP  RH WIND       PRES   REMARKS
SHREVEPORT     CLOUDY    78  69  73 S3        29.91F
BARKSDALE AFB  CLOUDY    81  67  62 SW9       29.91F
DTN SHREVEPORT CLOUDY    80  68  66 SW9       29.91F

$$

LAZ014-016-200200-
NORTHEAST LOUISIANA

CITY           SKY/WX    TMP DP  RH WIND       PRES   REMARKS
MONROE         PTCLDY    85  74  69 S3        29.92F
TALLULAH       PTCLDY    83  76  79 S5        29.91F

$$




USA.gov is the U.S. government's official web portal to all federal, state and local government web resources and services.